| time (UTC) | temp F | wind direction | speed knots | gust knots | rain 1hr in | rain 24hr in | rain mn in | humidity % | barometer mb |
| 20260508092722 | 41 | 240 | 0.0 | 0.9 | 0.00 | 0.00 | 0.00 | 86 | 1014.9 |
| 20260508092142 | 41 | 248 | 0.0 | 0.0 | 0.00 | 0.00 | 0.00 | 85 | 1014.9 |
| 20260508091528 | 41 | 248 | 0.0 | 0.0 | 0.00 | 0.00 | 0.00 | 85 | 1014.9 |
| 20260508090932 | 42 | 248 | 0.0 | 0.9 | 0.00 | 0.00 | 0.00 | 84 | 1014.9 |
| 20260508085139 | 42 | 259 | 0.0 | 0.0 | 0.00 | 0.00 | 0.00 | 81 | 1014.9 |
| 20260508084547 | 42 | 262 | 0.0 | 0.0 | 0.00 | 0.00 | 0.00 | 81 | 1014.9 |
| 20260508083912 | 43 | 266 | 0.0 | 0.0 | 0.00 | 0.00 | 0.00 | 81 | 1014.9 |
| 20260508083313 | 43 | 261 | 0.0 | 0.9 | 0.00 | 0.00 | 0.00 | 81 | 1014.9 |
| 20260508082735 | 43 | 259 | 0.0 | 0.9 | 0.00 | 0.00 | 0.00 | 80 | 1014.9 |
| 20260508082150 | 42 | 241 | 0.0 | 0.9 | 0.00 | 0.00 | 0.00 | 80 | 1014.9 |
| 20260508081537 | 43 | 221 | 0.0 | 0.9 | 0.00 | 0.00 | 0.00 | 80 | 1015.2 |
| 20260508080328 | 42 | 220 | 0.0 | 0.9 | 0.00 | 0.00 | 0.00 | 80 | 1014.9 |
| 20260508075731 | 42 | 220 | 0.0 | 0.9 | 0.00 | 0.00 | 0.00 | 80 | 1015.2 |
| 20260508075120 | 42 | 276 | 0.0 | 0.9 | 0.00 | 0.00 | 0.00 | 81 | 1015.2 |
| 20260508074529 | 42 | 277 | 0.0 | 0.9 | 0.00 | 0.00 | 0.00 | 81 | 1015.2 |
| 20260508073327 | 42 | 281 | 1.7 | 1.7 | 0.00 | 0.00 | 0.00 | 82 | 1014.9 |
| 20260508072733 | 42 | 273 | 0.9 | 0.9 | 0.00 | 0.00 | 0.00 | 82 | 1015.2 |
| 20260508072115 | 41 | 253 | 0.0 | 0.9 | 0.00 | 0.00 | 0.00 | 82 | 1014.9 |
| 20260508071537 | 41 | 270 | 0.0 | 0.0 | 0.00 | 0.00 | 0.00 | 81 | 1014.9 |
| 20260508070950 | 42 | 275 | 0.0 | 0.9 | 0.00 | 0.00 | 0.00 | 81 | 1014.9 |
| 20260508070338 | 42 | 273 | 0.9 | 1.7 | 0.00 | 0.00 | 0.00 | 80 | 1014.9 |
| 20260508065738 | 42 | 263 | 0.0 | 0.9 | 0.00 | 0.00 | 0.00 | 80 | 1014.9 |
| 20260508065133 | 42 | 266 | 0.0 | 0.9 | 0.00 | 0.00 | 0.00 | 78 | 1015.2 |
| 20260508064520 | 42 | 271 | 0.0 | 0.9 | 0.00 | 0.00 | 0.00 | 78 | 1015.2 |
| 20260508063925 | 42 | 271 | 0.0 | 0.9 | 0.00 | 0.00 | 0.00 | 77 | 1015.2 |
| 20260508063318 | 43 | 272 | 0.0 | 0.9 | 0.00 | 0.00 | 0.00 | 77 | 1015.2 |
| 20260508062742 | 43 | 271 | 0.0 | 0.9 | 0.00 | 0.00 | 0.00 | 76 | 1014.9 |
| 20260508062146 | 43 | 271 | 0.0 | 0.9 | 0.00 | 0.00 | 0.00 | 76 | 1014.9 |
| 20260508061530 | 43 | 273 | 0.0 | 0.9 | 0.00 | 0.00 | 0.00 | 76 | 1014.9 |
| 20260508060909 | 43 | 269 | 0.0 | 0.9 | 0.00 | 0.00 | 0.00 | 75 | 1014.9 |
| 20260508060341 | 43 | 274 | 0.0 | 0.9 | 0.00 | 0.00 | 0.00 | 74 | 1015.2 |
| 20260508055751 | 43 | 274 | 0.0 | 0.0 | 0.00 | 0.00 | 0.00 | 74 | 1015.2 |
| 20260508055141 | 44 | 276 | 0.0 | 0.9 | 0.00 | 0.00 | 0.00 | 73 | 1015.2 |
| 20260508054544 | 44 | 276 | 0.0 | 0.9 | 0.00 | 0.00 | 0.00 | 73 | 1015.5 |
| 20260508052738 | 44 | 276 | 0.0 | 0.9 | 0.00 | 0.00 | 0.00 | 71 | 1015.5 |
| 20260508052132 | 45 | 278 | 0.0 | 1.7 | 0.00 | 0.00 | 0.00 | 70 | 1015.5 |
| 20260508051526 | 45 | 278 | 0.0 | 0.9 | 0.00 | 0.00 | 0.00 | 70 | 1015.5 |
| 20260508050945 | 45 | 278 | 0.0 | 0.9 | 0.00 | 0.00 | 0.00 | 70 | 1015.5 |
| 20260508050309 | 45 | 278 | 0.0 | 0.9 | 0.00 | 0.00 | 0.00 | 70 | 1015.5 |
| 20260508045724 | 45 | 278 | 0.0 | 0.0 | 0.00 | 0.00 | 0.00 | 69 | 1015.5 |
| 20260508045128 | 45 | 278 | 0.0 | 0.9 | 0.00 | 0.00 | 0.00 | 69 | 1015.5 |
| 20260508044542 | 45 | 278 | 0.0 | 0.0 | 0.00 | 0.00 | 0.00 | 69 | 1015.5 |
| 20260508043936 | 45 | 278 | 0.9 | 0.9 | 0.00 | 0.00 | 0.00 | 70 | 1015.2 |
| 20260508043347 | 45 | 278 | 0.0 | 0.9 | 0.00 | 0.00 | 0.00 | 69 | 1015.2 |
| 20260508042723 | 46 | 281 | 0.0 | 0.9 | 0.00 | 0.00 | 0.00 | 68 | 1015.5 |
| 20260508042141 | 46 | 281 | 0.0 | 0.9 | 0.00 | 0.00 | 0.00 | 67 | 1015.2 |
| 20260508041532 | 46 | 282 | 0.9 | 1.7 | 0.00 | 0.00 | 0.00 | 67 | 1015.2 |
| 20260508040318 | 46 | 278 | 0.0 | 0.9 | 0.00 | 0.00 | 0.00 | 66 | 1015.2 |
| 20260508035120 | 46 | 278 | 0.0 | 0.0 | 0.00 | 0.00 | 0.00 | 66 | 1015.2 |
| 20260508034526 | 46 | 278 | 0.0 | 0.0 | 0.00 | 0.00 | 0.00 | 65 | 1015.2 |
| 20260508033916 | 47 | 278 | 0.0 | 0.9 | 0.00 | 0.00 | 0.00 | 64 | 1015.5 |
| 20260508033321 | 48 | 278 | 0.0 | 0.9 | 0.00 | 0.00 | 0.00 | 63 | 1014.9 |
| 20260508032734 | 48 | 276 | 0.9 | 1.7 | 0.00 | 0.00 | 0.00 | 62 | 1015.2 |
| 20260508032147 | 48 | 280 | 1.7 | 1.7 | 0.00 | 0.00 | 0.00 | 62 | 1015.2 |
| 20260508031526 | 47 | 282 | 1.7 | 1.7 | 0.00 | 0.00 | 0.00 | 65 | 1015.2 |
| 20260508030931 | 46 | 282 | 0.9 | 0.9 | 0.00 | 0.00 | 0.00 | 67 | 1015.2 |
| 20260508030311 | 46 | 282 | 0.9 | 0.9 | 0.00 | 0.00 | 0.00 | 68 | 1015.2 |
| 20260508025719 | 46 | 282 | 0.0 | 0.9 | 0.00 | 0.00 | 0.00 | 67 | 1014.9 |
| 20260508025114 | 46 | 282 | 0.0 | 0.9 | 0.00 | 0.00 | 0.00 | 67 | 1015.2 |
| 20260508024525 | 46 | 282 | 0.0 | 0.9 | 0.00 | 0.00 | 0.00 | 67 | 1015.2 |
| 20260508023946 | 46 | 282 | 0.9 | 0.9 | 0.00 | 0.00 | 0.00 | 66 | 1015.2 |
| 20260508023341 | 46 | 282 | 0.0 | 0.0 | 0.00 | 0.00 | 0.00 | 65 | 1015.2 |
| 20260508022723 | 47 | 282 | 0.0 | 0.9 | 0.00 | 0.00 | 0.00 | 65 | 1015.2 |
| 20260508021515 | 48 | 282 | 0.0 | 0.9 | 0.00 | 0.00 | 0.00 | 62 | 1015.2 |
| 20260508020945 | 49 | 282 | 0.9 | 1.7 | 0.00 | 0.00 | 0.00 | 61 | 1015.2 |
| 20260508020349 | 48 | 282 | 0.9 | 0.9 | 0.00 | 0.00 | 0.00 | 62 | 1015.2 |
| 20260508015738 | 48 | 282 | 0.0 | 0.9 | 0.00 | 0.00 | 0.00 | 61 | 1015.2 |
| 20260508015145 | 49 | 283 | 0.0 | 0.9 | 0.00 | 0.00 | 0.00 | 60 | 1014.9 |
| 20260508014517 | 50 | 276 | 0.9 | 1.7 | 0.00 | 0.00 | 0.00 | 59 | 1014.9 |
| 20260508012725 | 50 | 287 | 0.9 | 1.7 | 0.00 | 0.00 | 0.00 | 58 | 1014.9 |
| 20260508011528 | 50 | 311 | 0.0 | 0.9 | 0.00 | 0.00 | 0.00 | 56 | 1014.5 |
| 20260508010935 | 51 | 303 | 0.0 | 0.9 | 0.00 | 0.00 | 0.00 | 56 | 1014.5 |
| 20260508010349 | 51 | 295 | 0.0 | 0.9 | 0.00 | 0.00 | 0.00 | 57 | 1014.5 |
| 20260508005736 | 51 | 288 | 0.9 | 0.9 | 0.00 | 0.00 | 0.00 | 57 | 1014.2 |
| 20260508003908 | 51 | 285 | 0.9 | 0.9 | 0.00 | 0.00 | 0.00 | 56 | 1014.5 |
| 20260508003340 | 52 | 285 | 0.0 | 1.7 | 0.00 | 0.00 | 0.00 | 56 | 1014.2 |
| 20260508002734 | 53 | 285 | 0.9 | 1.7 | 0.00 | 0.00 | 0.00 | 54 | 1014.2 |
| 20260508002110 | 53 | 295 | 0.9 | 1.7 | 0.00 | 0.00 | 0.00 | 54 | 1014.2 |
| 20260508001532 | 54 | 297 | 0.9 | 1.7 | 0.00 | 0.00 | 0.00 | 54 | 1014.2 |
| 20260508000949 | 54 | 315 | 1.7 | 2.6 | 0.00 | 0.00 | 0.00 | 52 | 1014.2 |
| 20260508000335 | 54 | 294 | 1.7 | 2.6 | 0.00 | 0.00 | 0.00 | 52 | 1013.8 |
| 20260507235747 | 55 | 290 | 1.7 | 2.6 | 0.00 | 0.00 | 0.00 | 51 | 1014.2 |
| 20260507235119 | 55 | 281 | 3.5 | 5.2 | 0.00 | 0.00 | 0.00 | 51 | 1013.8 |
| 20260507234551 | 56 | 288 | 2.6 | 3.5 | 0.00 | 0.00 | 0.00 | 51 | 1013.8 |
| 20260507233938 | 56 | 289 | 2.6 | 6.1 | 0.00 | 0.00 | 0.00 | 51 | 1013.8 |
| 20260507233347 | 57 | 356 | 0.0 | 6.1 | 0.00 | 0.00 | 0.00 | 50 | 1013.8 |
| 20260507231535 | 57 | 326 | 3.5 | 7.8 | 0.00 | 0.00 | 0.00 | 49 | 1013.5 |
| 20260507225744 | 58 | 304 | 1.7 | 6.1 | 0.00 | 0.00 | 0.00 | 51 | 1013.8 |
| 20260507225120 | 58 | 286 | 8.7 | 10.4 | 0.00 | 0.00 | 0.00 | 49 | 1013.8 |
| 20260507224527 | 57 | 343 | 2.6 | 5.2 | 0.00 | 0.00 | 0.00 | 50 | 1013.5 |
| 20260507223918 | 57 | 304 | 1.7 | 13.9 | 0.00 | 0.00 | 0.00 | 50 | 1013.8 |
| 20260507223338 | 58 | 254 | 2.6 | 6.1 | 0.00 | 0.00 | 0.00 | 50 | 1013.5 |
| 20260507222719 | 59 | 339 | 4.3 | 9.6 | 0.00 | 0.00 | 0.00 | 46 | 1013.2 |
| 20260507221516 | 59 | 289 | 5.2 | 8.7 | 0.00 | 0.00 | 0.00 | 46 | 1013.5 |
| 20260507220312 | 58 | 331 | 1.7 | 8.7 | 0.00 | 0.00 | 0.00 | 47 | 1013.5 |
| 20260507215738 | 57 | 285 | 1.7 | 6.1 | 0.00 | 0.00 | 0.00 | 47 | 1013.2 |
| 20260507215144 | 58 | 345 | 5.2 | 9.6 | 0.00 | 0.00 | 0.00 | 46 | 1012.8 |
| 20260507213944 | 59 | 315 | 7.8 | 12.2 | 0.00 | 0.00 | 0.00 | 43 | 1012.8 |
| 20260507212736 | 60 | 296 | 5.2 | 8.7 | 0.00 | 0.00 | 0.00 | 42 | 1012.5 |
| 20260507211532 | 60 | 308 | 5.2 | 13.0 | 0.00 | 0.00 | 0.00 | 41 | 1012.5 |
| 20260507210928 | 60 | 329 | 3.5 | 7.8 | 0.00 | 0.00 | 0.00 | 43 | 1012.5 |
| 20260507210344 | 60 | 328 | 2.6 | 9.6 | 0.00 | 0.00 | 0.00 | 43 | 1012.5 |
| 20260507204547 | 61 | 335 | 5.2 | 7.0 | 0.00 | 0.00 | 0.00 | 42 | 1012.5 |
| 20260507202737 | 60 | 328 | 1.7 | 9.6 | 0.00 | 0.00 | 0.00 | 45 | 1012.5 |
| 20260507202152 | 59 | 284 | 7.0 | 13.0 | 0.00 | 0.00 | 0.00 | 45 | 1012.5 |
| 20260507201538 | 60 | 346 | 12.2 | 14.8 | 0.00 | 0.00 | 0.00 | 45 | 1012.5 |
| 20260507200938 | 60 | 290 | 7.8 | 13.0 | 0.00 | 0.00 | 0.00 | 44 | 1012.8 |
| 20260507195752 | 61 | 276 | 6.1 | 7.8 | 0.00 | 0.00 | 0.00 | 45 | 1012.5 |
| 20260507195151 | 60 | 270 | 7.0 | 9.6 | 0.00 | 0.00 | 0.00 | 43 | 1012.8 |
| 20260507194514 | 61 | 253 | 6.1 | 12.2 | 0.00 | 0.00 | 0.00 | 41 | 1012.5 |
| 20260507193951 | 61 | 281 | 7.0 | 8.7 | 0.00 | 0.00 | 0.00 | 41 | 1012.8 |
| 20260507192732 | 60 | 349 | 1.7 | 6.1 | 0.00 | 0.00 | 0.00 | 45 | 1012.8 |
| 20260507192146 | 59 | 337 | 0.9 | 8.7 | 0.00 | 0.00 | 0.00 | 48 | 1012.8 |
| 20260507191535 | 59 | 339 | 5.2 | 14.8 | 0.00 | 0.00 | 0.00 | 46 | 1012.8 |
| 20260507190936 | 59 | 314 | 2.6 | 7.8 | 0.00 | 0.00 | 0.00 | 47 | 1012.8 |
| 20260507185724 | 62 | 262 | 6.1 | 7.8 | 0.00 | 0.00 | 0.00 | 47 | 1013.2 |
| 20260507185150 | 59 | 322 | 2.6 | 7.0 | 0.00 | 0.00 | 0.00 | 50 | 1013.5 |
| 20260507184548 | 60 | 313 | 0.9 | 6.1 | 0.00 | 0.00 | 0.00 | 47 | 1013.2 |
| 20260507183951 | 61 | 292 | 3.5 | 12.2 | 0.00 | 0.00 | 0.00 | 51 | 1013.2 |
| 20260507183308 | 60 | 321 | 7.8 | 12.2 | 0.00 | 0.00 | 0.00 | 47 | 1012.8 |
| 20260507182714 | 59 | 354 | 1.7 | 8.7 | 0.00 | 0.00 | 0.00 | 47 | 1013.2 |
| 20260507182150 | 59 | 294 | 4.3 | 7.0 | 0.00 | 0.00 | 0.00 | 46 | 1013.2 |
| 20260507181510 | 59 | 276 | 2.6 | 7.8 | 0.00 | 0.00 | 0.00 | 49 | 1013.2 |
| 20260507180927 | 58 | 237 | 4.3 | 10.4 | 0.00 | 0.00 | 0.00 | 47 | 1012.8 |
| 20260507180324 | 59 | 321 | 1.7 | 9.6 | 0.00 | 0.00 | 0.00 | 50 | 1012.8 |
| 20260507174520 | 61 | 11 | 0.9 | 1.7 | 0.00 | 0.00 | 0.00 | 50 | 1013.2 |
| 20260507173945 | 58 | 303 | 4.3 | 7.8 | 0.00 | 0.00 | 0.00 | 46 | 1013.5 |
| 20260507172732 | 59 | 339 | 3.5 | 10.4 | 0.00 | 0.00 | 0.00 | 48 | 1013.5 |
| 20260507172129 | 60 | 291 | 2.6 | 7.8 | 0.00 | 0.00 | 0.00 | 52 | 1013.5 |
| 20260507170911 | 59 | 215 | 2.6 | 7.0 | 0.00 | 0.00 | 0.00 | 47 | 1013.8 |
| 20260507170321 | 58 | 179 | 0.9 | 5.2 | 0.00 | 0.00 | 0.00 | 49 | 1013.5 |
| 20260507165750 | 58 | 307 | 3.5 | 6.1 | 0.00 | 0.00 | 0.00 | 47 | 1013.5 |
| 20260507165135 | 58 | 322 | 1.7 | 7.0 | 0.00 | 0.00 | 0.00 | 47 | 1013.8 |
| 20260507163923 | 58 | 271 | 2.6 | 7.0 | 0.00 | 0.00 | 0.00 | 53 | 1013.8 |
| 20260507162722 | 59 | 257 | 2.6 | 6.1 | 0.00 | 0.00 | 0.00 | 49 | 1013.8 |
| 20260507162152 | 57 | 282 | 2.6 | 6.1 | 0.00 | 0.00 | 0.00 | 48 | 1013.8 |
| 20260507161555 | 58 | 265 | 5.2 | 14.8 | 0.00 | 0.00 | 0.00 | 48 | 1013.8 |
| 20260507160923 | 57 | 333 | 3.5 | 5.2 | 0.00 | 0.00 | 0.00 | 49 | 1014.2 |
| 20260507160346 | 58 | 254 | 7.0 | 12.2 | 0.00 | 0.00 | 0.00 | 50 | 1014.2 |
| 20260507155731 | 58 | 314 | 1.7 | 3.5 | 0.00 | 0.00 | 0.00 | 49 | 1013.8 |
| 20260507155123 | 57 | 239 | 1.7 | 6.1 | 0.00 | 0.00 | 0.00 | 47 | 1014.2 |
| 20260507154519 | 56 | 322 | 7.0 | 7.8 | 0.00 | 0.00 | 0.00 | 49 | 1014.2 |
| 20260507153911 | 57 | 332 | 3.5 | 7.0 | 0.00 | 0.00 | 0.00 | 49 | 1014.2 |
| 20260507153315 | 56 | 228 | 1.7 | 8.7 | 0.00 | 0.00 | 0.00 | 51 | 1014.2 |
| 20260507152750 | 55 | 276 | 2.6 | 7.8 | 0.00 | 0.00 | 0.00 | 50 | 1014.2 |
| 20260507151534 | 56 | 316 | 5.2 | 7.0 | 0.00 | 0.00 | 0.00 | 52 | 1014.2 |
| 20260507150347 | 55 | 235 | 2.6 | 8.7 | 0.00 | 0.00 | 0.00 | 52 | 1014.5 |
| 20260507145715 | 56 | 270 | 7.0 | 7.8 | 0.00 | 0.00 | 0.00 | 51 | 1014.5 |
| 20260507145111 | 56 | 333 | 2.6 | 7.8 | 0.00 | 0.00 | 0.00 | 53 | 1014.2 |
| 20260507144515 | 56 | 303 | 5.2 | 7.8 | 0.00 | 0.00 | 0.00 | 52 | 1014.5 |
| 20260507143939 | 55 | 279 | 1.7 | 6.1 | 0.00 | 0.00 | 0.00 | 55 | 1014.5 |
| 20260507143320 | 55 | 175 | 0.9 | 5.2 | 0.00 | 0.00 | 0.00 | 55 | 1014.2 |
| 20260507142123 | 54 | 268 | 5.2 | 7.8 | 0.00 | 0.00 | 0.00 | 58 | 1014.5 |
| 20260507141517 | 55 | 305 | 1.7 | 2.6 | 0.00 | 0.00 | 0.00 | 61 | 1014.5 |
| 20260507140926 | 54 | 330 | 1.7 | 7.8 | 0.00 | 0.00 | 0.00 | 60 | 1014.9 |
| 20260507140342 | 54 | 246 | 4.3 | 5.2 | 0.00 | 0.00 | 0.00 | 62 | 1014.9 |
| 20260507135143 | 54 | 344 | 1.7 | 3.5 | 0.00 | 0.00 | 0.00 | 64 | 1014.9 |
| 20260507134519 | 53 | 305 | 4.3 | 6.1 | 0.00 | 0.00 | 0.00 | 63 | 1015.2 |
| 20260507133319 | 52 | 273 | 1.7 | 3.5 | 0.00 | 0.00 | 0.00 | 66 | 1014.9 |
| 20260507132742 | 52 | 343 | 2.6 | 5.2 | 0.00 | 0.00 | 0.00 | 69 | 1014.9 |
| 20260507132122 | 52 | 290 | 2.6 | 6.1 | 0.00 | 0.00 | 0.00 | 71 | 1015.2 |
| 20260507130911 | 50 | 276 | 1.7 | 1.7 | 0.00 | 0.00 | 0.00 | 77 | 1015.2 |
| 20260507130311 | 50 | 346 | 1.7 | 6.1 | 0.00 | 0.00 | 0.00 | 78 | 1015.2 |
| 20260507124550 | 49 | 303 | 1.7 | 6.1 | 0.00 | 0.00 | 0.00 | 81 | 1014.9 |
| 20260507123942 | 48 | 297 | 0.9 | 3.5 | 0.00 | 0.00 | 0.00 | 82 | 1015.2 |
| 20260507123343 | 48 | 284 | 3.5 | 5.2 | 0.00 | 0.00 | 0.00 | 82 | 1014.9 |
| 20260507122748 | 47 | 280 | 1.7 | 2.6 | 0.00 | 0.00 | 0.00 | 84 | 1014.9 |
| 20260507122127 | 47 | 272 | 0.9 | 3.5 | 0.00 | 0.00 | 0.00 | 85 | 1015.2 |
| 20260507120340 | 44 | 304 | 3.5 | 5.2 | 0.00 | 0.00 | 0.00 | 93 | 1015.2 |
| 20260507115712 | 44 | 282 | 1.7 | 3.5 | 0.00 | 0.00 | 0.00 | 96 | 1014.9 |
| 20260507115146 | 44 | 279 | 0.9 | 3.5 | 0.00 | 0.00 | 0.00 | 97 | 1014.9 |
| 20260507114527 | 43 | 296 | 0.9 | 0.9 | 0.00 | 0.00 | 0.00 | 98 | 1014.9 |
| 20260507113916 | 43 | 270 | 1.7 | 1.7 | 0.00 | 0.00 | 0.00 | 98 | 1014.9 |
| 20260507113326 | 43 | 306 | 0.9 | 0.9 | 0.00 | 0.00 | 0.00 | 98 | 1014.9 |
| 20260507112752 | 42 | 315 | 0.0 | 0.0 | 0.00 | 0.00 | 0.00 | 98 | 1014.9 |
| 20260507111513 | 42 | 315 | 0.0 | 0.0 | 0.00 | 0.00 | 0.00 | 98 | 1014.9 |
| 20260507110940 | 41 | 315 | 0.0 | 0.0 | 0.00 | 0.00 | 0.00 | 98 | 1014.9 |
| 20260507110320 | 40 | 315 | 0.0 | 0.0 | 0.00 | 0.00 | 0.00 | 98 | 1014.9 |
| 20260507105717 | 40 | 316 | 0.0 | 0.0 | 0.00 | 0.00 | 0.00 | 98 | 1014.9 |
| 20260507105143 | 40 | 316 | 0.0 | 0.0 | 0.00 | 0.00 | 0.00 | 98 | 1014.5 |
| 20260507104546 | 40 | 317 | 0.0 | 0.0 | 0.00 | 0.00 | 0.00 | 98 | 1014.5 |
| 20260507103320 | 40 | 317 | 0.0 | 0.0 | 0.00 | 0.00 | 0.00 | 98 | 1014.2 |
| 20260507102729 | 39 | 317 | 0.0 | 0.0 | 0.00 | 0.00 | 0.00 | 97 | 1014.5 |
| 20260507101525 | 39 | 317 | 0.0 | 0.0 | 0.00 | 0.00 | 0.00 | 97 | 1014.2 |
| 20260507100912 | 40 | 317 | 0.0 | 0.0 | 0.00 | 0.00 | 0.00 | 96 | 1014.5 |
| 20260507100332 | 40 | 317 | 0.0 | 0.0 | 0.00 | 0.00 | 0.00 | 96 | 1013.8 |
| 20260507095740 | 40 | 317 | 0.0 | 0.0 | 0.00 | 0.00 | 0.00 | 95 | 1014.2 |
| 20260507095110 | 40 | 317 | 0.0 | 0.0 | 0.00 | 0.00 | 0.00 | 95 | 1014.2 |
| 20260507093930 | 41 | 317 | 0.0 | 0.0 | 0.00 | 0.00 | 0.00 | 93 | 1014.2 |
| 20260507093344 | 41 | 317 | 0.9 | 0.9 | 0.00 | 0.00 | 0.00 | 93 | 1014.2 |